Regional Weather Roundup
Issued by NWS Northern Indiana

Home | Current Version | Previous Version | Text Only | Print | Product List | Glossary Off
Versions: 1 2 3 4 5 6 7 8 9 10 11 12 13 14 15 16 17 18 19 20 21 22 23 24 25 26 27 28 29 30 31 32 33 34 35 36 37 38 39 40 41 42 43 44 45 46 47 48 49 50

000
ASUS43 KIWX 190200
RWRIWX

KIWX WEATHER ROUNDUP
NATIONAL WEATHER SERVICE NORTHERN INDIANA
900 PM EST THU DEC 18 2014

NOTE: "FAIR" INDICATES FEW OR NO CLOUDS BELOW 12,000 FEET WITH NO
SIGNIFICANT WEATHER AND/OR OBSTRUCTIONS TO VISIBILITY.

* THESE STATIONS ARE NOT UNDER NWS QUALITY CONTROL. THEY ALSO MAY NOT
  REPORT WEATHER SUCH AS PRECIPITATION OR FOG.

INZ001>027-190300-
NORTHERN INDIANA

CITY           SKY/WX    TMP DP  RH WIND       PRES   REMARKS
GARY*          CLOUDY    28  18  64 W6        30.27S WCI  22
SOUTH BEND     CLOUDY    28  20  71 W7        30.24S WCI  21
GOSHEN         CLOUDY    27  21  78 W6        30.22S WCI  20
ANGOLA*        CLOUDY    27  25  93 W7        30.19F WCI  19
FORT WAYNE     CLOUDY    27  22  81 NW7       30.23S WCI  19

$$
INZ028>050-190300-
CENTRAL INDIANA

CITY           SKY/WX    TMP DP  RH WIND       PRES   REMARKS
LAFAYETTE      CLOUDY    25  21  85 NW7       30.26S WCI  17
KOKOMO*        CLOUDY    27  19  74 NW7       30.24S WCI  19
MUNCIE*        CLOUDY    27  22  81 NW7       30.23R WCI  19
INDIANAPOLIS   CLOUDY    27  21  78 NW6       30.24R WCI  20

$$
MIZ043>046-050>051-056>058-064>065-071>073-077>080-190300-
SOUTHWEST LOWER MICHIGAN

CITY           SKY/WX    TMP DP  RH WIND       PRES   REMARKS
BATTLE CREEK   CLOUDY    29  25  85 SW7       30.19S FOG     WCI  22
BENTON HARBOR  LGT SNOW  30  28  92 W14       30.22S FOG     WCI  19
COLDWATER*     CLOUDY    28  26  94 W7        30.19F FOG     WCI  20
HILLSDALE*     CLOUDY    28  28  98 W8        30.17F FOG     WCI  20
HOLLAND        CLOUDY    33  27  78 VRB3      30.20S
GRAND RAPIDS   CLOUDY    30  24  78 N6        30.19S WCI  24
KALAMAZOO      CLOUDY    28  23  81 SW12      30.19F WCI  18
STURGIS*       CLOUDY    27  25  93 W6        30.20S WCI  20
THREE RIVERS*  CLOUDY    28  23  80 W3        30.22S

$$
OHZ001>008-015>018-024>025-190300-
NORTHWEST OHIO

CITY           SKY/WX    TMP DP  RH WIND       PRES   REMARKS
DEFIANCE       CLOUDY    29  24  82 CALM      30.22S
FINDLAY        CLOUDY    29  25  85 W8        30.19F WCI  21
TOLEDO EXPRESS CLOUDY    29  25  85 W6        30.19F WCI  23
TOLEDO METCALF CLOUDY    31  25  78 W9        30.20S WCI  23
LIMA           CLOUDY    30  23  75 W7        30.20S WCI  23

$$
AND FOR LAKE MICHIGAN COASTAL AND OPEN LAKE BUOY OBSERVATIONS

STATION/POSITION TEMP    WIND        PRES    VSBY  WAVE
                 AIR SEA DIR/SP/G                  HT/PER
                 (F)     (DEG/KT/KT) (MB)    (MI)  (FT/S)
CALUMET HARBOR    28     190/  3/  4 1023.3F
SAINT JOSEPH      31     220/ 13/ 17 1024.0R

$$
&&



USA.gov is the U.S. government's official web portal to all federal, state and local government web resources and services.